[[{"header":{"parameterUnit":"m.s-1","parameterCategory":1,"la1":30.2991,"la2":30.254,"lo1":-89.0895,"lo2":-89.0444,"dy":0.0017,"dx":0.0017,"nx":28,"ny":28,"refTime":"2025-08-23T21:00:00:Z","depth":0,"parameterNumber":2,"parameterNumberName":"U-component_of_WINDS"},"data":[0,0,0,0,0,0,0,0,0,0,0,0,0,0,0,0,0,0,0,0,0,0,0,0,0,0,0,0,0,0,0,0,0,0,0,0,0,0,0,0,0,0,0,0,0,0,0,0,0,0,0,0,0,0,0,0,0,0,2.0594,2.0593,0,2.0576,2.0576,2.0575,2.0431,2.0428,2.0424,2.0421,2.0404,2.0407,2.041,0,0,0,0,0,0,0,0,0,0,0,0,0,2.0506,2.0509,2.0594,2.0593,2.0593,2.0576,2.0576,2.0575,2.0432,2.0427,2.0423,2.0419,2.0403,2.0406,2.041,0,0,0,0,0,0,0,0,0,0,0,0,0,2.0522,2.0509,2.0594,2.0519,2.0513,2.0576,2.0576,2.0575,2.0433,2.0427,2.0422,2.0417,2.0402,2.0406,2.041,2.0544,0,0,2.0424,2.0425,0,0,0,0,0,0,0,0,2.0521,2.0525,2.0531,2.0525,2.0517,2.05,2.0539,2.0565,2.0434,2.0463,2.0421,2.0414,2.044,2.0441,2.045,2.0543,2.0543,2.0424,2.0427,2.0428,2.043,0,0,0,0,0,0,0,2.052,2.0525,2.0586,2.0531,2.0523,2.0488,2.0484,2.0543,2.0482,2.046,2.045,2.0449,2.0436,2.0446,2.0448,2.0542,2.0424,2.0428,2.043,2.0432,2.0747,2.0753,0,0,0,0,0,0,2.0529,2.0525,2.0587,2.0586,2.0506,2.0494,2.049,2.0511,2.0481,2.0471,2.0454,2.0443,2.0441,2.0443,2.0447,2.0603,2.0428,2.0432,2.0435,2.0742,2.0749,2.0755,0,0,0,0,0,0,2.0528,2.0536,2.0588,2.0553,2.0557,2.0501,2.0526,2.0514,2.0523,2.0476,2.0465,2.0475,2.0437,2.0441,2.0521,2.06,2.0434,2.0438,2.0735,2.0744,2.0752,2.0915,0,0,0,0,0,0,2.0526,2.0537,2.0586,2.0555,2.0559,2.0662,2.0531,2.0517,2.0531,2.0516,2.0493,2.0484,2.0433,2.0516,2.0526,2.0603,2.0442,2.0727,2.0739,2.0749,2.0902,2.0928,2.095,0,0,0,0,0,2.0524,2.0632,2.0589,2.0597,2.0619,2.0667,2.0669,2.0607,2.0538,2.0588,2.0558,2.0485,2.059,2.0525,2.0535,2.0615,2.0722,2.0736,2.0748,2.0891,2.0923,2.095,0,0,0,0,0,0,2.0673,2.0627,2.0578,2.068,2.0679,2.0642,2.0702,2.0642,2.0661,2.0646,2.0569,2.0566,2.0658,2.0644,2.0573,2.0744,2.0644,2.066,2.0749,2.0779,2.0803,2.0804,2.0445,0,0,0,0,0,2.0718,2.076,2.0717,2.0811,2.0813,2.0759,2.0777,2.073,2.0725,2.0724,2.0699,2.0699,2.0731,2.0754,2.0782,2.09,2.0894,2.096,2.0984,2.1004,2.1019,2.1082,2.1111,2.0798,2.0798,2.0797,0,0,2.0811,2.0791,2.0821,2.0841,2.0834,2.088,2.0759,2.0812,2.0845,2.0732,2.0806,2.0789,2.0783,2.0884,2.0927,2.0875,2.1104,2.1021,2.1037,2.104,2.1099,2.1128,2.1155,2.0806,2.0805,2.0803,0,0,2.1003,2.0992,2.107,2.1066,2.1058,2.1022,2.1041,2.1015,2.0999,2.1073,2.0989,2.1029,2.1087,2.1086,2.1094,2.1291,2.1225,2.1302,2.1427,2.149,2.1515,2.1537,2.1608,2.1634,2.1317,2.1317,2.1318,0,2.112,2.1185,2.1118,2.1177,2.1189,2.1089,2.1168,2.1168,2.117,2.1181,2.1123,2.1196,2.1184,2.1284,2.1333,2.1342,2.1363,2.1304,2.1517,2.1538,2.1557,2.1624,2.1651,2.1327,2.1326,2.1325,2.1324,0,2.1329,2.1376,2.144,2.1445,2.1464,2.1533,2.1478,2.1506,2.1458,2.1429,2.1507,2.1491,2.1514,2.1534,2.1488,2.1629,2.1598,2.153,2.1427,2.1597,2.1659,2.1684,2.134,2.1337,2.1334,2.1332,0,0,2.1612,2.1581,2.1606,2.1608,2.1594,2.1629,2.1695,2.1718,2.1744,2.175,2.1804,2.1857,2.1795,2.1804,2.1757,2.1813,2.1972,2.1738,2.1737,2.1782,2.2128,2.2179,2.221,2.1929,2.1933,2.1937,2.2128,0,2.1798,2.1908,2.1851,2.1969,2.2012,2.192,2.1978,2.1977,2.1952,2.1986,2.1959,2.1998,2.1913,2.1918,2.1968,2.1942,2.204,2.1927,2.1979,2.1982,2.1983,2.2241,2.2295,2.2476,2.2152,2.2156,2.2159,0,2.2028,2.2044,2.2167,2.2147,2.2163,2.2216,2.2234,2.2268,2.2265,2.2243,2.2255,2.2197,2.2261,2.2161,2.225,2.2175,2.2194,2.2184,2.219,2.2192,2.208,2.2251,2.2532,2.256,2.2196,2.2193,2.2191,0,2.2223,2.2276,2.2356,2.2361,2.2339,2.2379,2.2372,2.2364,2.2383,2.2399,2.2411,2.2435,2.2449,2.2469,2.242,2.2351,2.2517,2.2411,2.2501,2.2503,2.2539,2.2537,2.2828,2.2552,2.2552,2.2551,2.2551,0,2.2436,2.2515,2.2444,2.2494,2.258,2.2516,2.2603,2.2586,2.2581,2.2627,2.2549,2.2594,2.2526,2.2564,2.2526,2.2607,2.2613,2.2598,2.2587,2.2605,2.2607,2.2616,2.2602,2.2558,2.2557,2.2555,2.2554,0,2.2667,2.2623,2.2705,2.2679,2.2675,2.274,2.2718,2.2764,2.2735,2.2794,2.2804,2.276,2.2802,2.2754,2.2792,2.2766,2.2876,2.2846,2.2877,2.2869,2.2961,2.2953,2.3267,2.3305,2.3005,2.3008,2.3011,0,2.2805,2.2864,2.2846,2.2871,2.2869,2.291,2.2929,2.287,2.2893,2.2897,2.2943,2.2978,2.3003,2.3074,2.3046,2.3075,2.3045,2.3154,2.3049,2.3066,2.3048,2.3045,2.3051,2.3175,2.3178,2.3181,2.3183,0,2.3056,2.3032,2.3062,2.3087,2.3113,2.3129,2.3139,2.3164,2.3102,2.3133,2.3175,2.3195,2.3235,2.3272,2.3294,2.3287,2.3226,2.3217,2.3239,2.3258,2.3274,2.3267,2.2935,2.321,2.3207,2.3205,2.3204,2.3203,2.3245,2.3294,2.3289,2.3326,2.3328,2.3341,2.3383,2.3361,2.3395,2.3423,2.3386,2.3439,2.3438,2.3461,2.3462,2.3503,2.3457,2.349,2.3498,2.3507,2.3521,2.3268,2.3507,2.3506,2.3506,2.3505,2.3504,0,2.3491,2.3485,2.352,2.3538,2.3568,2.3509,2.3519,2.3548,2.3596,2.36,2.3627,2.3677,2.3713,2.3689,2.372,2.3758,2.3731,2.3768,2.3765,2.3765,2.356,2.3538,2.379,2.379,2.379,2.379,2.379,2.3789,2.3623,2.3703,2.368,2.3761,2.3754,2.3805,2.3816,2.3828,2.3831,2.3891,2.3921,2.3905,2.3899,2.3929,2.3961,2.3952,2.3968,2.4015,2.3998,2.3807,2.3779,2.3752,2.3731,2.4019,2.4019,2.4199,2.42,2.4202]},{"header":{"parameterUnit":"m.s-1","parameterCategory":1,"la1":30.2991,"la2":30.254,"lo1":-89.0895,"lo2":-89.0444,"dy":0.0017,"dx":0.0017,"nx":28,"ny":28,"refTime":"2025-08-23T21:00:00:Z","depth":0,"parameterNumber":3,"parameterNumberName":"V-component_of_WINDS"},"data":[0,0,0,0,0,0,0,0,0,0,0,0,0,0,0,0,0,0,0,0,0,0,0,0,0,0,0,0,0,0,0,0,0,0,0,0,0,0,0,0,0,0,0,0,0,0,0,0,0,0,0,0,0,0,0,0,0,0,-1.0627,-1.0628,0,-1.0698,-1.0698,-1.0699,-1.0743,-1.0743,-1.0744,-1.0744,-1.0813,-1.0814,-1.0816,0,0,0,0,0,0,0,0,0,0,0,0,0,-1.0527,-1.0529,-1.0627,-1.0628,-1.0629,-1.0697,-1.0698,-1.0699,-1.0743,-1.0743,-1.0744,-1.0744,-1.0812,-1.0814,-1.0816,0,0,0,0,0,0,0,0,0,0,0,0,0,-1.0581,-1.0529,-1.0627,-1.0659,-1.0663,-1.0697,-1.0698,-1.07,-1.0743,-1.0743,-1.0744,-1.0744,-1.0811,-1.0814,-1.0816,-1.0823,0,0,-1.0823,-1.0824,0,0,0,0,0,0,0,0,-1.0578,-1.0585,-1.0653,-1.0657,-1.0661,-1.0712,-1.0688,-1.0741,-1.0743,-1.0712,-1.0744,-1.0744,-1.0779,-1.0784,-1.0796,-1.0827,-1.0829,-1.0824,-1.0825,-1.0826,-1.0827,0,0,0,0,0,0,0,-1.0574,-1.0582,-1.0655,-1.0654,-1.0659,-1.0669,-1.0677,-1.0699,-1.0742,-1.0715,-1.0718,-1.0726,-1.0781,-1.0794,-1.0798,-1.083,-1.0824,-1.0826,-1.0827,-1.0828,-1.087,-1.0869,0,0,0,0,0,0,-1.0566,-1.0579,-1.0653,-1.0657,-1.062,-1.067,-1.0679,-1.0695,-1.0742,-1.075,-1.0726,-1.0728,-1.0789,-1.0795,-1.08,-1.0812,-1.0826,-1.0828,-1.083,-1.087,-1.087,-1.0869,0,0,0,0,0,0,-1.0564,-1.0572,-1.065,-1.0619,-1.0629,-1.0672,-1.0689,-1.0696,-1.0709,-1.0751,-1.0758,-1.0731,-1.079,-1.0797,-1.0817,-1.0815,-1.0829,-1.0832,-1.087,-1.087,-1.0869,-1.0834,0,0,0,0,0,0,-1.0561,-1.0571,-1.0575,-1.0619,-1.0631,-1.0666,-1.0689,-1.0697,-1.0714,-1.0717,-1.0758,-1.0765,-1.0791,-1.0814,-1.082,-1.0818,-1.0833,-1.0871,-1.087,-1.087,-1.0835,-1.0832,-1.0829,0,0,0,0,0,-1.0557,-1.0562,-1.0575,-1.0584,-1.0637,-1.0666,-1.0673,-1.0704,-1.0713,-1.0717,-1.0744,-1.0763,-1.0814,-1.0815,-1.0823,-1.0822,-1.0871,-1.087,-1.087,-1.0837,-1.0833,-1.0829,0,0,0,0,0,0,-1.0516,-1.0568,-1.0583,-1.0603,-1.063,-1.0674,-1.0679,-1.0699,-1.0723,-1.0725,-1.0762,-1.077,-1.0787,-1.0806,-1.0807,-1.0831,-1.0845,-1.0845,-1.0817,-1.0814,-1.0811,-1.0805,-1.0835,0,0,0,0,0,-1.0509,-1.0529,-1.0574,-1.0586,-1.0599,-1.0637,-1.0651,-1.0672,-1.0701,-1.0713,-1.0741,-1.0767,-1.0789,-1.0803,-1.0825,-1.0839,-1.0847,-1.0841,-1.0838,-1.0836,-1.0836,-1.0843,-1.0841,-1.0867,-1.0867,-1.0867,0,0,-1.0495,-1.0526,-1.0537,-1.0579,-1.0602,-1.0621,-1.0646,-1.0666,-1.068,-1.0715,-1.0736,-1.0758,-1.079,-1.0806,-1.0815,-1.0823,-1.0831,-1.0835,-1.0832,-1.0834,-1.0842,-1.084,-1.0838,-1.0866,-1.0866,-1.0866,0,0,-1.0479,-1.0505,-1.0519,-1.0542,-1.0578,-1.0603,-1.0605,-1.0647,-1.0662,-1.0684,-1.0711,-1.0728,-1.0765,-1.0787,-1.0802,-1.0795,-1.0813,-1.0801,-1.0785,-1.0792,-1.079,-1.0788,-1.0784,-1.0783,-1.0801,-1.0801,-1.0801,0,-1.0457,-1.0489,-1.0523,-1.0541,-1.0558,-1.0592,-1.0605,-1.0625,-1.0666,-1.0676,-1.0685,-1.0732,-1.0756,-1.0778,-1.0776,-1.0788,-1.0792,-1.0796,-1.0788,-1.0786,-1.0785,-1.0782,-1.0781,-1.0799,-1.0799,-1.0799,-1.0799,0,-1.0459,-1.048,-1.0486,-1.0526,-1.0544,-1.0559,-1.0594,-1.0608,-1.0628,-1.0651,-1.0673,-1.0703,-1.0731,-1.0738,-1.0758,-1.0763,-1.0766,-1.0781,-1.0796,-1.078,-1.0778,-1.0777,-1.0796,-1.0797,-1.0797,-1.0798,0,0,-1.0419,-1.0478,-1.0479,-1.0497,-1.0539,-1.0555,-1.0571,-1.0601,-1.0611,-1.0638,-1.0652,-1.0682,-1.0696,-1.0714,-1.0736,-1.0742,-1.0733,-1.0756,-1.0757,-1.075,-1.0739,-1.0727,-1.0725,-1.0746,-1.0746,-1.0746,-1.0736,0,-1.0409,-1.0442,-1.0472,-1.0493,-1.0512,-1.0544,-1.0559,-1.0585,-1.0607,-1.0626,-1.065,-1.0671,-1.0688,-1.0699,-1.0707,-1.0732,-1.0731,-1.0733,-1.0757,-1.0758,-1.0748,-1.0724,-1.0712,-1.0702,-1.0735,-1.0735,-1.0735,0,-1.0402,-1.0428,-1.0451,-1.049,-1.0499,-1.0511,-1.054,-1.0558,-1.0588,-1.0604,-1.0624,-1.0647,-1.0665,-1.0678,-1.0702,-1.0703,-1.0714,-1.0728,-1.0729,-1.0731,-1.0745,-1.0726,-1.0699,-1.0697,-1.0734,-1.0734,-1.0734,0,-1.037,-1.041,-1.0429,-1.0444,-1.049,-1.0498,-1.0517,-1.0548,-1.0563,-1.0588,-1.0598,-1.0625,-1.0639,-1.0658,-1.0687,-1.0694,-1.0707,-1.0723,-1.072,-1.0719,-1.072,-1.072,-1.0695,-1.0729,-1.0729,-1.0729,-1.0729,0,-1.0355,-1.0367,-1.0415,-1.0426,-1.0441,-1.0476,-1.0489,-1.0511,-1.0538,-1.0553,-1.0583,-1.0596,-1.0634,-1.0652,-1.0675,-1.0691,-1.0697,-1.0709,-1.0715,-1.0706,-1.0704,-1.0714,-1.0715,-1.0729,-1.0729,-1.0729,-1.0729,0,-1.0321,-1.0354,-1.0376,-1.0418,-1.0429,-1.0438,-1.0474,-1.0485,-1.0509,-1.0528,-1.0535,-1.0572,-1.0595,-1.0626,-1.0658,-1.0673,-1.0685,-1.0695,-1.0675,-1.0678,-1.0673,-1.0672,-1.0652,-1.0651,-1.0686,-1.0686,-1.0686,0,-1.0309,-1.0319,-1.0363,-1.0376,-1.0395,-1.0415,-1.0431,-1.0465,-1.0481,-1.0515,-1.0522,-1.0547,-1.0569,-1.0603,-1.0632,-1.0656,-1.0666,-1.0658,-1.067,-1.0661,-1.0665,-1.0664,-1.0664,-1.0654,-1.0653,-1.0653,-1.0653,0,-1.0284,-1.0299,-1.0322,-1.035,-1.0368,-1.0392,-1.0416,-1.0425,-1.0464,-1.048,-1.0503,-1.052,-1.0553,-1.0577,-1.0605,-1.0624,-1.0644,-1.0649,-1.0649,-1.064,-1.0627,-1.0633,-1.0666,-1.0649,-1.0649,-1.0649,-1.065,-1.065,-1.026,-1.027,-1.0303,-1.0326,-1.0349,-1.0371,-1.0384,-1.041,-1.043,-1.046,-1.0479,-1.0501,-1.0531,-1.0571,-1.0589,-1.0606,-1.0614,-1.0615,-1.0615,-1.0614,-1.0611,-1.0625,-1.0611,-1.0611,-1.0612,-1.0612,-1.0612,0,-1.0236,-1.0258,-1.0279,-1.0313,-1.0332,-1.0351,-1.0379,-1.0392,-1.0412,-1.0438,-1.0459,-1.0486,-1.0509,-1.054,-1.0565,-1.0573,-1.0583,-1.0578,-1.0577,-1.0581,-1.0602,-1.0599,-1.057,-1.057,-1.057,-1.057,-1.057,-1.057,-1.0225,-1.0243,-1.0262,-1.0292,-1.0314,-1.0337,-1.0351,-1.0371,-1.0392,-1.0421,-1.0441,-1.0461,-1.0489,-1.0516,-1.0538,-1.0546,-1.0554,-1.0546,-1.0557,-1.0576,-1.058,-1.0583,-1.058,-1.0547,-1.0547,-1.0534,-1.0534,-1.0534]}]]